Simultaneous Nadir Overpasses (SNOs) Predictions

Prediction of SNOs between METOP-B and TERRA Satellite Orbit:

Table of predicted SNOs for the next 14.0 days since TLE Epoch: 7/11/2015
Index Date (METOP-B) Time (METOP-B) Lat,Lon (METOP-B) SZA (METOP-B ) Date (TERRA) Time (TERRA) Lat,Lon (TERRA) SZA (TERRA ) Distance(km) Time Diff (sec)
1 07/13/2015 10:24:06 -81.31,-108.59 117.75 07/13/2015 10:24:29 -81.32,-108.48 117.72 2.13 23
2 07/13/2015 11:14:46 81.31, 59.08 62.30 07/13/2015 11:13:55 81.32, 59.27 62.30 3.36 51
3 07/16/2015 05:58:28 -81.31, -42.13 117.33 07/16/2015 05:58:45 -81.32, -42.09 117.31 0.89 17
4 07/16/2015 06:49:08 81.31, 125.50 62.72 07/16/2015 06:48:11 81.32, 125.63 62.71 2.13 57
5 07/19/2015 01:32:49 -81.31, 24.31 116.85 07/19/2015 01:33:00 -81.31, 24.20 116.86 1.84 11
6 07/
